Weather observations for the past three days for
Columbia, Columbia Metropolitan Airport
Imperial (Metric)
Date Time (edt) Wind (mph) Vis. (mi.) Weather Sky Cond. Temperature (ºF) Relative Humidity Wind Chill (°F) Heat Index (°F) Pressure Precipitation (in)
Air Dwpt 6 hour altimeter (in) sea level (mb) 1 hr 3 hr 6 hr
Max. Min.
14 17:56 SW 6 10.00 Mostly Cloudy SCT070 SCT110 BKN220 98.1 69.1 39% 104 29.99 1015.1
14 16:56 NW 9 10.00 Mostly Cloudy SCT085 SCT110 BKN200 97 69.1 40% 103 30.01 1015.9
14 15:56 Vrbl 6 10.00 Mostly Cloudy SCT075 SCT085 BKN220 100 66 33% 104 30.02 1016.3
14 14:56 W 6 10.00 Mostly Cloudy SCT070 BKN150 98.1 66.9 36% 103 30.05 1017.1
14 13:56 N 3 10.00 Mostly Cloudy SCT080 BKN100 98.1 66 99 79 35% 102 30.07 1018.0
14 12:56 Vrbl 5 10.00 Partly Cloudy SCT065 SCT160 97 68 39% 102 30.09 1018.6
14 11:56 SW 6 10.00 A Few Clouds FEW055 96.1 69.1 41% 102 30.11 1019.2
14 10:56 Calm 10.00 A Few Clouds FEW140 FEW200 93.9 73 51% 103 30.11 1019.3
14 09:56 Calm 10.00 Partly Cloudy FEW140 SCT200 89.1 75 63% 99 30.13 1019.8
14 08:56 S 3 10.00 A Few Clouds FEW160 82.9 75.9 79% 91 30.13 1019.9
14 07:56 Calm 10.00 Partly Cloudy FEW180 SCT240 79 75 79 75.9 88% 83 30.13 1019.8
14 06:56 Calm 9.00 Partly Cloudy FEW180 SCT250 75.9 73.9 94% 75 30.11 1019.3
14 05:56 Calm 10.00 Partly Cloudy FEW150 SCT250 77 73.9 90% 78 30.11 1019.3
14 04:56 Calm 10.00 Partly Cloudy SCT150 78.1 73.9 87% 81 30.1 1019.0
14 03:56 Calm 10.00 Partly Cloudy SCT150 78.1 73.9 87% 81 30.1 1018.8
14 02:56 Calm 10.00 Partly Cloudy SCT150 78.1 73.9 87% 81 30.11 1019.2
14 01:56 S 3 10.00 Partly Cloudy SCT150 79 75 93 79 88% 83 30.13 1019.7
14 00:56 Calm 10.00 Mostly Cloudy BKN150 81 73.9 79% 86 30.13 1019.8
13 23:56 Calm 10.00 Partly Cloudy SCT150 82 75 79% 89 30.14 1020.2
13 22:56 S 5 10.00 Partly Cloudy SCT150 82.9 75 77% 90 30.15 1020.6
13 21:56 SE 6 10.00 Fair CLR 84.9 75 72% 93 30.14 1020.3
13 20:56 SE 8 10.00 Mostly Cloudy FEW035 FEW070 BKN220 87.1 73.9 65% 95 30.13 1019.7
13 19:56 SW 6 10.00 Partly Cloudy FEW050 SCT220 93 70 99 91.9 47% 99 30.11 1019.3
13 18:56 SW 3 10.00 Mostly Cloudy FEW040 SCT070 BKN200 93 71.1 49% 100 30.1 1019.0
13 17:56 SW 8 10.00 Mostly Cloudy SCT060 BKN085 93.9 72 49% 102 30.1 1018.7
13 16:56 S 15 G 20 10.00 Mostly Cloudy BKN065 95 70 44% 101 30.1 1018.7
13 15:56 Vrbl 5 10.00 Partly Cloudy SCT065 SCT180 99 69.1 38% 105 30.1 1018.9
13 14:56 Vrbl 6 10.00 Partly Cloudy FEW060 SCT080 96.1 70 43% 103 30.12 1019.5
13 13:56 N 5 10.00 Partly Cloudy FEW050 SCT075 95 71.1 95 78.1 46% 102 30.14 1020.1
13 12:56 S 6 10.00 Mostly Cloudy SCT048 SCT060 BKN075 91.9 72 52% 100 30.17 1021.0
13 11:56 Vrbl 3 10.00 A Few Clouds FEW040 FEW150 90 73 58% 98 30.18 1021.5
13 10:56 Vrbl 3 10.00 A Few Clouds FEW180 88 73 61% 96 30.18 1021.7
13 09:56 N 3 10.00 A Few Clouds FEW060 FEW180 84.9 73 68% 92 30.18 1021.7
13 08:56 Vrbl 3 10.00 A Few Clouds FEW160 82 73.9 77% 88 30.18 1021.7
13 07:56 Calm 10.00 Partly Cloudy FEW130 FEW180 SCT240 78.1 73 79 75 85% 81 30.17 1021.2
13 06:56 NE 3 10.00 Partly Cloudy FEW120 FEW170 SCT250 75 73 94% 73 30.14 1020.5
13 05:56 NE 5 10.00 Mostly Cloudy SCT120 BKN150 75 73 94% 73 30.13 1020.0
13 04:56 NE 3 10.00 Partly Cloudy SCT130 75.9 73 91% 76 30.11 1019.3
13 03:56 Calm 10.00 Mostly Cloudy BKN120 77 73 88% 78 30.1 1018.9
13 02:56 Calm 10.00 Partly Cloudy FEW110 SCT150 77 73 88% 78 30.1 1018.8
13 01:56 Calm 10.00 Mostly Cloudy BKN110 77 73.9 89.1 77 90% 78 30.12 1019.5
13 00:56 E 5 10.00 Mostly Cloudy SCT011 BKN130 78.1 73.9 87% 81 30.13 1019.9
12 23:56 E 3 10.00 Partly Cloudy FEW110 SCT200 78.1 73.9 87% 81 30.13 1019.9
12 22:56 E 8 10.00 A Few Clouds FEW110 FEW200 79 73.9 85% 83 30.12 1019.5
12 21:56 E 10 10.00 A Few Clouds FEW110 81 75 82% 87 30.09 1018.7
12 20:56 E 8 10.00 Partly Cloudy FEW035 FEW110 SCT250 84.9 73.9 70% 92 30.07 1017.8
12 18:56 NE 5 10.00 Mostly Cloudy FEW035 FEW110 BKN220 90 75.9 63% 102 30.03 1016.7
12 17:56 E 8 10.00 Partly Cloudy SCT080 SCT100 89.1 75 63% 99 30.02 1016.1
12 16:56 Vrbl 6 10.00 Mostly Cloudy SCT065 SCT080 BKN100 91.9 70 49% 98 30.01 1015.8
12 15:56 NW 9 G 18 10.00 Partly Cloudy SCT050 SCT100 SCT220 95 71.1 46% 102 30.02 1016.0
12 14:56 NW 10 10.00 Mostly Cloudy FEW048 SCT070 BKN080 93 72 50% 101 30.02 1016.2
12 13:56 Vrbl 7 10.00 Mostly Cloudy SCT043 SCT055 BKN070 93 73 93 79 52% 102 30.03 1016.4
12 12:56 Vrbl 7 10.00 Mostly Cloudy FEW037 BKN060 BKN080 89.1 73 59% 97 30.04 1016.9
12 11:56 N 7 10.00 Mostly Cloudy FEW031 BKN050 89.1 73.9 61% 98 30.06 1017.4
12 10:56 N 8 10.00 Partly Cloudy SCT047 86 72 63% 92 30.06 1017.3
12 09:56 N 3 10.00 Mostly Cloudy FEW020 BKN042 BKN200 84.9 72 65% 91 30.05 1017.2
12 08:56 N 9 10.00 Mostly Cloudy BKN036 82.9 70 65% 87 30.04 1016.9
12 07:56 N 7 10.00 Partly Cloudy FEW043 SCT150 79 70 79 73 74% 82 30.02 1016.0
12 06:56 N 6 10.00 Partly Cloudy SCT100 75.9 70 82% 77 30 1015.4
12 05:56 Calm 10.00 Partly Cloudy SCT100 73.9 70 88% 29.99 1015.4
12 04:56 Calm 10.00 Partly Cloudy SCT100 75 71.1 88% 75 30 1015.5
12 03:56 W 5 10.00 Partly Cloudy SCT100 75.9 71.1 85% 76 29.99 1015.1
12 02:56 Calm 10.00 Mostly Cloudy BKN100 75.9 70 82% 77 29.98 1014.9
12 01:56 W 5 10.00 Partly Cloudy SCT100 75.9 70 90 75.9 82% 77 29.99 1015.3
12 00:56 E 5 10.00 Fair CLR 82 69.1 65% 85 29.99 1015.2
11 23:56 E 5 10.00 Fair CLR 82.9 68 61% 86 29.99 1015.1
11 22:56 E 5 10.00 Partly Cloudy SCT150 84.9 68 57% 88 29.98 1014.8
11 21:56 NE 3 10.00 Partly Cloudy SCT130 87.1 66.9 51% 90 29.97 1014.4
11 20:56 N 6 10.00 Partly Cloudy SCT080 SCT170 86 66.9 53% 89 29.96 1014.3
11 19:56 N 12 10.00 Mostly Cloudy BKN060 BKN160 90 66.9 93.9 89.1 47% 93 29.96 1014.0
11 18:56 Vrbl 7 10.00 Mostly Cloudy SCT060 BKN160 91.9 66.9 44% 95 29.94 1013.5
Date Time (edt) Wind (mph) Vis. (mi.) Weather Sky Cond. Air Dwpt Max. Min. Relative Humidity Wind Chill (°F) Heat Index (°F) altimeter (in) sea level (mb) 1 hr 3 hr 6 hr
6 hour
Temperature (ºF) Pressure Precipitation (in)